EAI4453 EIDW-EGCC

Flight info

Callsign EAI4453
Flight time 0h 42m
Altitude 15000
Route BOFUM1E BOFUM Q37 MALUD
Aircraft AT76/M-SDFGIRY/S

Departure

Time 2026-05-04 16:08
Airport Dublin Airport (EIDW)

Arrival

Time 2026-05-04 16:51
Airport Manchester Airport (EGCC)
Time Latitude Longitude Altitude Speed Heading
2026-05-04 15:48 53.42333 -6.24274 221 ft 0 kts 314°
2026-05-04 15:55 53.42332 -6.24272 221 ft 1 kts 314°
2026-05-04 15:56 53.42329 -6.24266 221 ft 1 kts 314°
2026-05-04 15:56 53.42324 -6.24258 221 ft 1 kts 314°
2026-05-04 15:56 53.42319 -6.24250 221 ft 1 kts 314°
2026-05-04 15:56 53.42315 -6.24242 221 ft 1 kts 314°
2026-05-04 15:57 53.42310 -6.24234 221 ft 1 kts 314°
2026-05-04 15:57 53.42305 -6.24226 221 ft 1 kts 314°
2026-05-04 15:57 53.42301 -6.24218 221 ft 1 kts 314°
2026-05-04 15:57 53.42296 -6.24210 221 ft 1 kts 314°
2026-05-04 15:58 53.42291 -6.24202 221 ft 1 kts 313°
2026-05-04 15:58 53.42288 -6.24199 221 ft 0 kts 282°
2026-05-04 15:58 53.42287 -6.24193 221 ft 1 kts 255°
2026-05-04 15:58 53.42288 -6.24187 221 ft 1 kts 246°
2026-05-04 15:59 53.42288 -6.24186 221 ft 0 kts 245°
2026-05-04 15:59 53.42290 -6.24181 221 ft 0 kts 242°
2026-05-04 15:59 53.42291 -6.24177 221 ft 0 kts 241°
2026-05-04 15:59 53.42292 -6.24174 221 ft 0 kts 241°
2026-05-04 16:00 53.42293 -6.24170 221 ft 0 kts 241°
2026-05-04 16:00 53.42295 -6.24166 221 ft 0 kts 241°
2026-05-04 16:01 53.42279 -6.24205 221 ft 12 kts 233°
2026-05-04 16:01 53.42205 -6.24343 221 ft 17 kts 248°
2026-05-04 16:01 53.42212 -6.24578 221 ft 24 kts 274°
2026-05-04 16:01 53.42197 -6.24777 221 ft 19 kts 250°
2026-05-04 16:02 53.42193 -6.24927 222 ft 0 kts 274°
2026-05-04 16:02 53.42196 -6.25007 223 ft 13 kts 274°
2026-05-04 16:03 53.42207 -6.25210 222 ft 22 kts 275°
2026-05-04 16:03 53.42223 -6.25509 221 ft 25 kts 275°
2026-05-04 16:03 53.42239 -6.25826 221 ft 30 kts 275°
2026-05-04 16:03 53.42259 -6.26131 222 ft 26 kts 277°
2026-05-04 16:04 53.42276 -6.26457 222 ft 28 kts 275°
2026-05-04 16:04 53.42311 -6.27091 222 ft 26 kts 275°
2026-05-04 16:04 53.42329 -6.27428 222 ft 31 kts 276°
2026-05-04 16:05 53.42350 -6.27805 222 ft 34 kts 274°
2026-05-04 16:05 53.42374 -6.28218 222 ft 28 kts 275°
2026-05-04 16:05 53.42278 -6.28290 227 ft 10 kts 140°
2026-05-04 16:06 53.42235 -6.28195 231 ft 11 kts 121°
2026-05-04 16:06 53.42188 -6.27994 231 ft 0 kts 95°
2026-05-04 16:07 53.42106 -6.26505 229 ft 121 kts 95°
2026-05-04 16:08 53.42023 -6.24961 501 ft 145 kts 95°
2026-05-04 16:08 53.41694 -6.18952 1668 ft 197 kts 94°
2026-05-04 16:09 53.41403 -6.14102 2449 ft 219 kts 92°
2026-05-04 16:09 53.41111 -6.08884 3221 ft 233 kts 93°
2026-05-04 16:10 53.40857 -6.03388 3992 ft 236 kts 81°
2026-05-04 16:11 53.42877 -5.95872 5153 ft 241 kts 64°
2026-05-04 16:11 53.43555 -5.93278 5538 ft 244 kts 66°
2026-05-04 16:12 53.45398 -5.85149 6695 ft 254 kts 69°
2026-05-04 16:12 53.47277 -5.76735 7810 ft 259 kts 67°
2026-05-04 16:13 53.48631 -5.71110 8578 ft 261 kts 67°
2026-05-04 16:13 53.50042 -5.65320 8927 ft 277 kts 67°
2026-05-04 16:14 53.51536 -5.59203 8973 ft 284 kts 67°
2026-05-04 16:14 53.53027 -5.53061 8982 ft 286 kts 67°
2026-05-04 16:15 53.53669 -5.43329 8985 ft 284 kts 95°
2026-05-04 16:16 53.53374 -5.36656 8988 ft 287 kts 92°
2026-05-04 16:16 53.53125 -5.26778 8986 ft 277 kts 92°
2026-05-04 16:17 53.52960 -5.20313 8987 ft 279 kts 92°
2026-05-04 16:18 53.52714 -5.10598 9478 ft 273 kts 92°
2026-05-04 16:18 53.52633 -5.07412 9664 ft 272 kts 93°
2026-05-04 16:19 53.52339 -4.97974 10194 ft 269 kts 93°
2026-05-04 16:19 53.52138 -4.91693 10502 ft 270 kts 93°
2026-05-04 16:20 53.51827 -4.82307 10929 ft 263 kts 93°
2026-05-04 16:20 53.51627 -4.76221 11194 ft 257 kts 93°
2026-05-04 16:21 53.51348 -4.67969 12592 ft 219 kts 93°
2026-05-04 16:22 53.51175 -4.62977 13302 ft 212 kts 94°
2026-05-04 16:22 53.50918 -4.55517 14108 ft 213 kts 93°
2026-05-04 16:23 53.50656 -4.48066 14801 ft 214 kts 93°
2026-05-04 16:24 53.50271 -4.37425 15050 ft 243 kts 93°
2026-05-04 16:25 53.50058 -4.31671 15061 ft 253 kts 93°
2026-05-04 16:26 53.49601 -4.19520 15060 ft 265 kts 94°
2026-05-04 16:26 53.49239 -4.10189 15058 ft 269 kts 94°
2026-05-04 16:27 53.48992 -4.03898 15057 ft 270 kts 94°
2026-05-04 16:28 53.48499 -3.94518 15057 ft 268 kts 106°
2026-05-04 16:28 53.46484 -3.85729 15056 ft 270 kts 110°
2026-05-04 16:29 53.44007 -3.73810 15059 ft 271 kts 109°
2026-05-04 16:30 53.42145 -3.64865 14985 ft 274 kts 109°
2026-05-04 16:31 53.41048 -3.58672 14254 ft 278 kts 95°
2026-05-04 16:31 53.40855 -3.48894 13106 ft 283 kts 94°
2026-05-04 16:32 53.40396 -3.38954 11929 ft 285 kts 94°
2026-05-04 16:33 53.40097 -3.32294 11175 ft 286 kts 94°
2026-05-04 16:33 53.39798 -3.25689 10442 ft 285 kts 94°
2026-05-04 16:34 53.39491 -3.19058 9692 ft 285 kts 94°
2026-05-04 16:34 53.39336 -3.15748 9293 ft 284 kts 94°
2026-05-04 16:35 53.41372 -3.06894 8265 ft 272 kts 56°
2026-05-04 16:35 53.44205 -2.99146 8073 ft 247 kts 59°
2026-05-04 16:36 53.45052 -2.96663 8065 ft 248 kts 58°
2026-05-04 16:36 53.46841 -2.91427 8059 ft 266 kts 59°
2026-05-04 16:37 53.48656 -2.86148 8053 ft 248 kts 59°
2026-05-04 16:37 53.49505 -2.83682 8052 ft 238 kts 59°
2026-05-04 16:37 53.51207 -2.78732 8065 ft 252 kts 59°
2026-05-04 16:38 53.52998 -2.73547 8044 ft 259 kts 58°
2026-05-04 16:39 53.54764 -2.66148 7820 ft 246 kts 70°
2026-05-04 16:39 53.55884 -2.60825 7159 ft 240 kts 69°
2026-05-04 16:40 53.57008 -2.55549 6436 ft 238 kts 70°
2026-05-04 16:40 53.58095 -2.50488 6126 ft 219 kts 70°
2026-05-04 16:41 53.58293 -2.45612 6062 ft 213 kts 93°
2026-05-04 16:41 53.57963 -2.38020 6049 ft 222 kts 95°
2026-05-04 16:42 53.57569 -2.30069 5702 ft 240 kts 95°
2026-05-04 16:43 53.57268 -2.24236 4947 ft 258 kts 95°
2026-05-04 16:43 53.56958 -2.18509 4219 ft 221 kts 95°
2026-05-04 16:43 53.56558 -2.16261 4019 ft 193 kts 125°
2026-05-04 16:44 53.53265 -2.09333 3092 ft 174 kts 129°
2026-05-04 16:45 53.51730 -2.06223 3026 ft 175 kts 130°
2026-05-04 16:46 53.49024 -2.02419 2992 ft 174 kts 188°
2026-05-04 16:46 53.46686 -2.03487 2970 ft 177 kts 199°
2026-05-04 16:47 53.45055 -2.06357 2964 ft 176 kts 237°
2026-05-04 16:47 53.43631 -2.09854 2712 ft 184 kts 237°
2026-05-04 16:48 53.41480 -2.14564 2018 ft 163 kts 232°
2026-05-04 16:48 53.40774 -2.16053 1793 ft 163 kts 232°
2026-05-04 16:49 53.39495 -2.18771 1383 ft 131 kts 232°
2026-05-04 16:49 53.38414 -2.21047 1024 ft 121 kts 232°
2026-05-04 16:50 53.37407 -2.23287 628 ft 124 kts 231°
2026-05-04 16:50 53.36331 -2.25508 318 ft 119 kts 231°
2026-05-04 16:51 53.35429 -2.27377 243 ft 40 kts 232°
2026-05-04 16:51 53.35305 -2.27662 247 ft 31 kts 243°
2026-05-04 16:51 53.35236 -2.28192 250 ft 0 kts 296°
2026-05-04 16:53 53.35355 -2.28088 249 ft 15 kts 44°
2026-05-04 16:54 53.35431 -2.27963 248 ft 15 kts 44°
2026-05-04 16:55 53.35797 -2.27869 247 ft 12 kts
2026-05-04 16:55 53.35967 -2.27838 246 ft 12 kts
2026-05-04 16:56 53.36109 -2.27920 246 ft 10 kts 316°
2026-05-04 16:56 53.36237 -2.28083 247 ft 8 kts
2026-05-04 16:57 53.36296 -2.28058 246 ft 8 kts 17°
2026-05-04 16:57 53.36417 -2.27931 244 ft 10 kts
2026-05-04 16:58 53.36512 -2.28015 245 ft 10 kts 24°
2026-05-04 16:58 53.36529 -2.27953 244 ft 4 kts 129°
2026-05-04 16:59 53.36430 -2.27892 244 ft 4 kts 134°
2026-05-04 17:00 53.36475 -2.27779 242 ft 0 kts 44°